Location: Observatoire
(46.1952°N, 5.3391°E)
Time: 23:56:52
(UTC+01:00)

Courier 1B Rocket - Pass Details

Date: 17 February 2026
Orbit: 920 x 1201 km, 28.2° (Epoch: 11 March)

Event Time Altitude Azimuth Distance (km) Brightness Sun altitude
Rises 23:35:59 0° 244° (WSW) 3,649 - -51.9°
Reaches altitude 10° 23:40:21 10° 217° (SW) 2,759 - -52.3°
Maximum altitude 23:43:03 13° 193° (SSW) 2,604 - -52.5°
Drops below altitude 10° 23:45:49 10° 169° (SSE) 2,840 - -52.7°
Sets 23:50:28 0° 142° (SE) 3,867 - -53.1°
